Regional Weather Roundup
Issued by NWS Wakefield, VA

Home | Current Version | Previous Version | Text Only | Print | Product List | Glossary On
Versions: 1 2 3 4 5 6 7 8 9 10 11 12 13 14 15 16 17 18 19 20 21 22 23 24 25 26
000
ASUS41 KAKQ 210416
RWRAKQ

REGIONAL WEATHER ROUNDUP
NATIONAL WEATHER SERVICE WAKEFIELD VA
1200 AM EDT FRI JUL 21 2017

Note: "fair" indicates few or no clouds below 12,000 feet with no
significant weather and/or obstructions to visibility. * = Denotes
station may not report precipitation (e.g., rain,snow,etc.),
thunder or fog.

VAZ042-051-052>054-056-210500-
NORTHERN VIRGINIA

CITY           SKY/WX    TMP DP  RH WIND       PRES   REMARKS
WASH NATIONAL  CLOUDY    86  78  77 S6        29.94R HX  98
DULLES         MOCLDY    85  67  54 NW9       29.95R
FORT BELVOIR   CLOUDY    80  76  87 CALM      29.94R
QUANTICO       PTCLDY    83  79  88 NW7       29.94S
FREDERICKSBRG* PTCLDY    79  75  87 CALM      29.94R
STAFFORD*      CLEAR     76  76  99 CALM      29.99S
WARRENTON      PTCLDY    75  70  85 CALM      29.95S
CULPEPER*      CLEAR     76  74  94 CALM      29.97R
MANASSAS*      MOCLDY    79  74  84 CALM      29.95R
LEESBURG*      CLOUDY    84  72  65 NW7       29.97S
WINCHESTER     CLEAR     79  66  65 SW3       29.99R
FRONT ROYAL*   PTCLDY    79  66  65 W3        29.98S
LURAY*         CLEAR     77  68  73 CALM      30.01R
$$

VAZ048-049-060>072-079>083-210500-
CENTRAL AND SOUTH CENTRAL VIRGINIA

CITY           SKY/WX    TMP DP  RH WIND       PRES   REMARKS
RICHMOND       CLOUDY    81  72  74 S3        29.96S
CHESTERFIELD*  FAIR      79  73  82 CALM      29.98R
PETERSBURG*    CLOUDY    76  71  86 CALM      29.98S
HANOVER        PTCLDY    78  71  79 CALM      29.97S
TAPPAHANNOCK*  PTCLDY    82  59  46 S5        29.96S
QUINTON*       FAIR      79  76  90 SE3       29.96S
CHARLOTTSVILLE CLEAR     80  71  74 SW3       29.98R
GORDONSVILLE*  PTCLDY    76  71  83 CALM      29.97S
ORANGE*        CLEAR     72  70  94 CALM      29.97S
LOUISA*        MOCLDY    79  66  65 NW6       29.98R
BUMPASS*       FAIR      77  73  88 S3        29.96S
FARMVILLE*     CLOUDY    77  72  86 CALM      29.97S
CREWE*         MOCLDY    76  71  87 CALM      29.98S
FORT PICKETT*  FAIR     N/A N/A N/A SW5       29.99S
CHASE CITY*    FAIR      78  74  89 CALM      30.00S
CLARKSVILLE*   FAIR      77  73  88 S5        29.99S
SOUTH HILL*    CLOUDY    76  72  87 SW3       30.05S
LAWRENCEVILLE* FAIR      77  70  78 SW5       29.99R
EMPORIA*       CLOUDY    75  72  88 SE3       30.00S
$$

VAZ088>098-210500-
SOUTHEAST VIRGINIA

CITY           SKY/WX    TMP DP  RH WIND       PRES   REMARKS
NORFOLK        PTCLDY    82  74  76 SW9       29.97S
VIRGINIA BEACH MOCLDY    81  73  76 SW10      29.97S
NORFOLK NAVAL  CLOUDY    83  72  69 SW9       29.99R
WEST POINT*    MOCLDY    83  72  68 S3        29.97S
SALUDA*        FAIR      82  75  81 S6        29.95S
NEWPORT NEWS   CLOUDY    83  73  72 SW10      29.97R
LANGLEY AFB    CLOUDY    83  74  72 S12       29.97R
FORT EUSTIS    CLOUDY    83  75  77 S5        29.95R
WILLIAMSBURG*  MOCLDY    84  73  70 CALM      29.98S
HR EXEC AP*    FAIR      79  72  78 SW8       29.97R
FRANKLIN*      NOT AVBL
US460-WAKEFLD  CLOUDY    81  74  79 S5        29.98R
$$

VAZ020-022-025-037-045-210500-
WEST CENTRAL AND SOUTHWEST VIRGINIA

CITY           SKY/WX    TMP DP  RH WIND       PRES   REMARKS
STAUNTON*      CLOUDY    73  69  88 CALM      30.05S
WAYNESBORO*    PTCLDY    73  70  89 S8        30.05S
HOT SPRINGS VA MOCLDY    70  55  60 CALM      30.21S
LYNCHBURG      CLOUDY    76  71  85 CALM      30.02S
DANVILLE       CLOUDY    77  76  96 CALM      30.01R
SOUTH BOSTON*  FAIR      77  75  93 CALM      30.00R
MARTINSVILLE   PTCLDY    74  73  94 CALM      30.06S
ROANOKE        CLOUDY    78  67  68 W6        30.07S
BLACKSBURG     PTCLDY    72  65  78 CALM      30.16R
DUBLIN*        PTCLDY    74  59  60 SW5       30.14S
MARION*        CLOUDY    70  64  79 W3        30.19S
HILLSVILLE*    CLOUDY    72  62  68 CALM      30.16F
RICHLANDS*     FAIR      72  62  72 CALM      30.18S
WISE*          PTCLDY    72  63  73 CALM      30.20R
ABINGDON*      CLEAR     73  68  83 CALM      30.15S
$$

MDZ021>025-VAZ099-100-210500-
SOUTHERN MARYLAND AND THE DELMARVA PENINSULA

CITY           SKY/WX    TMP DP  RH WIND       PRES   REMARKS
PATUXENT RIVER PTCLDY    83  75  77 SW8       29.93S
BAY BRIDGE APT CLOUDY    84  75  74 S5        29.92S
LEONARDTOWN    CLOUDY   N/A N/A N/A SW6       29.96R
DOVER          CLOUDY    82  82 100 SW8       29.90S HX  96
GEORGETOWN     PTCLDY    79  74  84 S6        29.94S
EASTON         CLOUDY    84  76  78 SW5       29.96S
CAMBRIDGE      CLEAR     79  75  89 S3        29.93S
SALISBURY      NOT AVBL
OCEAN CITY     PTCLDY    81  75  82 SW8       29.94S
WALLOPS ISLAND CLEAR     77  76  96 S7        29.96R
ACCOMACK*      CLEAR     80  74  82 S8        29.96S
$$

NCZ012>017-030>032-210500-
NORTH CENTRAL AND EASTERN NORTH CAROLINA

CITY           SKY/WX    TMP DP  RH WIND       PRES   REMARKS
ROANOKE RAPIDS FAIR      77  72  83 S3        30.00R
RALEIGH        MOCLDY    82  72  71 SW5       30.02R
ELIZABETH CITY CLOUDY    80  77  90 S9        30.00R
AHOSKIE*         N/A     76  73  88 CALM      30.00S
EDENTON*       CLOUDY    82  75  79 SW10      30.01R
CURRITUCK*     CLOUDY    80  77  89 CALM      30.00R
KILL DEVIL HLS CLOUDY    80  72  77 CALM      29.99S
MANTEO         CLOUDY    80  73  79 SW14      30.01S
CAPE HATTERAS  CLOUDY    80  74  81 SW8       30.03S
TARBORO*       NOT AVBL
GOLDSBORO      CLEAR     80  79  98 S7        30.01R
WASHINGTON     PTCLDY    78  73  83 S7        30.01S
GREENVILLE     CLOUDY    81  73  78 SW10      30.02S
NEW BERN       CLEAR     77  75  93 SW6       30.05R
WILMINGTON     CLEAR     79  76  90 SW9       30.04R
$$

VAZ048-210500-
ELSEWHERE

CITY           SKY/WX    TMP DP  RH WIND       PRES   REMARKS
HARRISBURG PA  MOCLDY    82  73  74 NW6       29.91S
BALTIMORE      CLOUDY    85  73  67 W7        29.93R
ANNAPOLIS      PTCLDY    84  77  79 CALM      29.92S
ANDREWS AFB    CLOUDY    83  73  71 SW7       29.93S
PHILADELPHIA   CLOUDY    81  68  64 SE3       29.91S
HENDERSON NC   PTCLDY    74  68  82 S5        30.01S
GREENSBORO     MOCLDY    81  73  76 SW7       30.04R
ROCKY MOUNT    CLEAR     79  76  90 S5        30.01R
$$

VAZ100-210500-
MARINE

STATION/POSITION TIME  TEMP    WIND        PRES    WAVE   SWELL
                       AIR SEA DIR/SP/G            HT/PER HT/PER
                 (UTC) (F)     (DEG/KT/KT) (MB)    (FT/S) (FT/S)
BRANDYWINE LGT   0348          230/ 12/ 13 1013.4R
CAPE MAY NJ      0348   79 75  210/  6/ 12 1012.6F
LEWES DE         0348   81 74  230/  6/  9 1013.1S
15NM E FENWICK I 0350   76 75  210/ 12/ 12 1014.3S   3/ 7   2/ 7
OCEAN-CITY-INLET 0348   73 69  220/ 10/ 11 1014.3S
WACHAPREAGUE VA  0348   81 86  200/  7/  9 1014.4R
THOMAS POINT MD  0400   84 82  210/ 11/ 12   N/A
GOOSES REEF MD   0400   85 84  220/ 10/ 12 1014.1    1/ 2
COVE POINT MD    0348   84     230/ 13/ 16 1014.0F
SOLOMONS ISLAND  0348   84 85  210/ 10/ 12   N/A
BISHOPS HEAD MD  0348   85 87  200/ 12/ 14 1013.8S
PINEY POINT MD   0348          230/ 14/ 16   N/A
POTOMAC MD       0400   84 84  230/ 12/ 16 1012.9    1/ 2
CAMBRIDGE MD     0348   83 87              1014.3R
LEWISETTA VA     0348   83 86  230/  9/ 11 1013.7R
RAPPAHANNOCK LGT 0348          190/ 12/ 13 1015.0R
STINGRAY PT      0350   86     240/ 12/ 14 1014.4R
YORK RVR RNG VA  0348   85     220/ 14/ 17 1014.8R
YORKTOWN VA      0348   84 82  210/ 10/ 13 1014.3R
JAMESTOWN VA     0400      87  210/ 12/ 14   N/A
DOMINION TERM VA 0348   83     200/ 11/ 14 1014.9S
KIPTOPEKE VA     0348      79  190/  6/  7   N/A
CHES BAY BRIDGE  0348   82 77  210/ 13/ 15 1014.8R
CAPE HENRY VA    0348   82     200/  8/ 12   N/A
WILLOUBY STN VA  0348   84     200/ 15/ 17 1014.7F
S CRANEY ISL VA  0348   83     210/ 10/ 15 1014.9R
CAPE HENRY BUOY  0330      73                N/A     2/ 8   2/15
1ST LANDING BUOY 0400   81 77              1014.7    1
64NM E OF VA BCH 0350   80 80  210/ 12/ 16 1015.9F   3/ 7   2/ 7
DUCK PIER NC     0348   81 64  200/ 12/ 15 1015.5R
44100 DUCK FRF   0305      76                N/A     2/15   2/15
44056 DUCK FRF   0400      67                N/A     2/14   2/14
OREGON INLET NC  0348          200/ 14/ 16 1016.0F
HATTERAS NC      0348   80 80  230/  8/ 11 1016.8S
DIAMOND SHLS NC  0350   82 85  230/ 12/ 14 1016.8R   3/ 7   2/ 7
CAPE LOOKOUT NC  0400   81     230/  8/ 12 1016.9R
$$




USA.gov is the U.S. government's official web portal to all federal, state and local government web resources and services.